Regional Weather Roundup
Issued by NWS

Home | Current Version | Previous Version | Text Only | Print | Product List | Glossary On
Versions: 1 2 3 4 5 6 7 8 9 10 11 12 13 14 15 16 17 18 19 20 21 22 23 24 25 26 27 28 29 30 31 32 33 34 35 36 37 38 39 40 41 42 43 44 45 46 47 48 49 50
000
ASUS44 KOUN 302010
RWROK

WEATHER ROUNDUP FOR OKLAHOMA
NATIONAL WEATHER SERVICE NORMAN OK
200 PM CST MON JAN 30 2023

NOTE: "FAIR" INDICATES FEW OR NO CLOUDS BELOW 12,000 FEET WITH NO
      SIGNIFICANT WEATHER AND/OR OBSTRUCTIONS TO VISIBILITY.

OKZ001>007-009>012-014-015-017-302100-
NORTHWEST OKLAHOMA AND THE PANHANDLE

CITY           SKY/WX    TMP DP  RH WIND       PRES   REMARKS
GAGE           CLOUDY    19   4  51 NE9       30.29  WCI   8
GUYMON         LGT SNOW  13   7  77 NE5       30.22F WCI   5
ENID/WOODRING  CLOUDY    23   9  54 N13       30.37F WCI  11
$$

OKZ016-021>023-033>039-044-045-302100-
SOUTHWEST OKLAHOMA

CITY           SKY/WX    TMP DP  RH WIND       PRES   REMARKS
LAWTON/REGL    CLOUDY    23  11  60 N14       30.33F WCI  11
LAWTON/FT SILL CLOUDY    23  10  58 N14       30.29F WCI  11
FREDERICK      CLOUDY    23  12  62 N16       30.30F WCI  10
CLINTON        CLOUDY    22   9  57 N15       30.29F WCI   9
HOBART         CLOUDY    21  11  65 N13       30.32F WCI   9
ALTUS AFB      CLOUDY    22  11  62 N13       30.30F WCI  10
$$

OKZ018>020-024>031-302100-
CENTRAL OKLAHOMA

CITY           SKY/WX    TMP DP  RH WIND       PRES   REMARKS
OKLAHOMA CITY  CLOUDY    20  11  68 N13       30.31F WCI   7
OKC/WILEY POST CLOUDY    21  10  63 N15       30.33F WCI   8
OKC/TINKER AFB PTSUNNY   20  11  68 N18       30.27F WCI   5
STILLWATER     CLOUDY    23   9  55 N10       30.37F WCI  12
GUTHRIE        CLOUDY    19   9  65 N7        30.35F WCI  10
$$

OKZ008-013-054>072-302100-
NORTHEAST OKLAHOMA

CITY           SKY/WX    TMP DP  RH WIND       PRES   REMARKS
TULSA          CLOUDY    21  11  65 N13       30.39R WCI   9
TULSA/JONES    CLOUDY    21  11  65 N12       30.36F WCI   9
PONCA CITY     CLOUDY    23   8  52 N10       30.38F WCI  12
BARTLESVILLE   CLOUDY    23   8  52 N9        30.41F WCI  13
MUSKOGEE       MIX PCPN  20  18  92 N15       30.35F VSB 1   WCI   6
$$

OKZ032-040>043-046>053-073>077-302100-
SOUTH CENTRAL/SOUTHEAST OKLAHOMA

CITY           SKY/WX    TMP DP  RH WIND       PRES   REMARKS
ARDMORE/DWNTWN LGT SNOW  23  18  78 N10       30.28F WCI  13
MCALESTER      SNOW      23  20  88 N12       30.30F VSB 1/2 WCI  12
$$




USA.gov is the U.S. government's official web portal to all federal, state and local government web resources and services.